Simultaneous Nadir Overpasses (SNOs) Predictions

Prediction of SNOs between GOES-16 and NOAA-19 Satellite Orbit:

Table of predicted SNOs for the next 14.0 days since TLE Epoch: 1/14/2023
Index Date Time (GOES-16) GOES-16 Lat,Lon NOAA-19 Lat,Lon Distance(km) Time Diff (sec)
1 01/15/2023 01:25:59 0.02, -75.18 -0.41, -76.97 204.14 80
2 01/16/2023 01:11:23 0.02, -75.19 0.30, -74.07 128.28 80
3 01/17/2023 00:59:27 0.03, -75.19 0.95, -71.15 460.69 80
4 01/18/2023 13:34:25 -0.02, -75.22 0.82, -78.90 419.96 80
5 01/19/2023 13:22:29 -0.02, -75.22 0.18, -75.98 87.67 80
6 01/20/2023 13:07:53 -0.03, -75.23 -0.52, -73.08 244.83 80
7 01/23/2023 01:30:54 0.02, -75.23 -0.60, -77.91 306.23 80
8 01/24/2023 01:16:18 0.00, -75.24 0.06, -75.00 27.56 80
9 01/25/2023 01:04:21 -0.01, -75.25 0.73, -72.09 361.56 80
10 01/27/2023 13:27:23 0.01, -75.31 0.41, -76.91 183.50 80
